Regional Weather Roundup
Issued by NWS

Home | Current Version | Previous Version | Graphics & Text | Print | Product List | Glossary On
Versions: 1 2 3 4 5 6 7 8 9 10 11 12 13 14 15 16 17 18 19 20 21 22 23 24 25 26 27 28
000
ASUS45 KSLC 202210
RWRUT

UTAH REGIONAL WEATHER ROUNDUP
NATIONAL WEATHER SERVICE SALT LAKE CITY UT
400 PM MDT THU JUL 20 2017

UTZ001>011-023>025-202300-

NORTHERN UTAH

CITY           SKY/WX    TMP DP  RH WIND       PRES   REMARKS
BRIGHAM CITY   SUNNY     94  49  21 S16       30.01F HX  90
DUGWAY         MOSUNNY   95  49  20 S18G28    30.00F HX  91
HILL AFB       MOSUNNY   91  53  26 S9G22     30.06F
LOGAN          SUNNY     93  53  25 SW6       30.02F HX  90
OGDEN          MOSUNNY   93  53  25 S10G18    30.01F HX  90
SALT LAKE CITY PTSUNNY   93  54  26 S14       30.01F HX  91
TOOELE VALLEY  PTSUNNY   93  54  26 S15G23    30.01F HX  91
WENDOVER       MOSUNNY   96  50  20 SE10      29.97F HX  93
HEBER CITY     MOSUNNY   91  45  19 SW15      30.12F
WEST JORDAN    PTSUNNY   92  64  40 SE16      30.05F HX  93

$$

UTZ011>015-024>027-202300-

CENTRAL/NORTHEAST UTAH

CITY           SKY/WX    TMP DP  RH WIND       PRES   REMARKS
PROVO AIRPORT  PTSUNNY   90  55  30 CALM      30.06F
MOAB/CANYONLAN SUNNY     96  50  20 SW6       30.01F HX  93
DELTA          PTSUNNY   91  48  22 SW16G25   30.07F
PRICE          LGT RAIN  78  54  43 N10       30.20R
ROOSEVELT      CLOUDY    88  54  31 SW8       30.12F
VERNAL         CLOUDY    93  52  24 S10       30.10F HX  90

$$

UTZ013>016-019>022-027-202300-

SOUTHERN UTAH

CITY           SKY/WX    TMP DP  RH WIND       PRES   REMARKS
BRYCE CANYON   PTSUNNY   81  49  32 VRB6      30.33F
CEDAR CITY     MOSUNNY   85  51  31 SW16G23   30.18F
MILFORD        PTSUNNY   88  53  30 SW22G28   30.11F
ST GEORGE      PTCLDY    96  54  24 VRB6      29.98F HX  94
HANKSVILLE     MOSUNNY   91  41  17 SW24G33   30.06R
BLANDING       SUNNY     89  46  22 SW3       30.25F

$$

REGIONAL REPORTS     COLORADO/ARIZONA

CITY           SKY/WX    TMP DP  RH WIND       PRES   REMARKS
CRAIG, CO      CLOUDY    86  45  23 W17       30.19F
GRAND JUNCTION CLOUDY    95  47  19 W12G18    30.06F HX  91
RIFLE, CO      CLOUDY    88  55  32 N6        30.12F
MONTROSE, CO   CLOUDY    78  52  40 SE10      30.21S
CORTEZ, CO     PTSUNNY   92  51  24 SW9       30.17F
COLORADO CITY    N/A     90  54  29 NW7       30.17F
PAGE, AZ       PTSUNNY   94  54  25 W8        30.06F HX  92
GRAND CANYON   MOSUNNY   82  50  32 S5        30.27F
KINGMAN, AZ    MOSUNNY   94  53  25 VRB6      30.06F HX  91
FLAGSTAFF, AZ  CLOUDY    62  54  74 VRB3      30.33F

$$

REGIONAL REPORTS    NEVADA/IDAHO/WYOMING

CITY           SKY/WX    TMP DP  RH WIND       PRES   REMARKS
LAS VEGAS, NV  PTSUNNY   97  54  23 S12       29.94F HX  95
ELY, NY        SUNNY     89  48  24 VRB5G21   30.16F
ELKO, NV       SUNNY     93  18   6 W6        30.09F
POCATELLO, ID  CLOUDY    91  33  12 SW14      30.05F
BURLEY, ID     SUNNY     85  43  22 W10       30.03F
FORT BRIDGER,    N/A     87  48  25 S12       30.25F
EVANSTON, WY   CLOUDY    82  50  32 W16G26    30.24F
ROCK SPRINGS,  CLOUDY    87  41  19 VRB5      30.20F
KEMMERER, WY     N/A     82  43  24 SW15G30   30.24F

$$




USA.gov is the U.S. government's official web portal to all federal, state and local government web resources and services.